Weather History for Wolf Creek Pass, CO

Change the Weather History Date:

Sunday, July 21, 2013

  Actual Average (KALS) Record (KALS)
Temperature  
Mean Temperature 53 °F 65 °F  
Max Temperature 62 °F 82 °F 92 °F (2005)
Min Temperature 44 °F 48 °F 41 °F (1961)
Degree Days  
Heating Degree Days 12 1  
Month to date heating degree days 30  
Since 1 June heating degree days 198  
Since 1 July heating degree days 30  
Cooling Degree Days 0 1  
Month to date cooling degree days 21  
Year to date cooling degree days 27  
Since 1 June cooling degree days 27  
Growing Degree Days 3 (Base 50)    
Moisture  
Dew Point 36 °F    
Average Humidity 57    
Maximum Humidity 81    
Minimum Humidity 27    
Precipitation  
Precipitation 0.00 in 0.04 in 0.91 in (1977)
Month to date precipitation 0.63  
Year to date precipitation 3.34  
Snow  
Snow 0.00 in 0.00 in 0.00 in (2002)
Month to date snowfall 0.0  
Since 1 June snowfall 0.0  
Since 1 July snowfall 0.0  
Snow Depth -    
Sea Level Pressure  
Sea Level Pressure 30.56 in    
Wind  
Wind Speed - (North)    
Max Wind Speed -    
Max Gust Speed -    
Visibility 10 miles    
Events Rain , Thunderstorm    
T = Trace of Precipitation, MM = Missing Value Source: NWS Daily Summary

Daily Weather History Graph

Daily Weather History Graph

Search for Another Location

Airport:

Trip Planner

Search our weather history database for the weather conditions in past years. The results will help you decide how hot, cold, wet, or windy it might be!

Date:

Astronomy

Jul. 21, 2013 Rise Set
Actual Time 6:02 AM MDT 8:24 PM MDT
Civil Twilight 5:33 AM MDT 8:53 PM MDT
Nautical Twilight 4:56 AM MDT 9:30 PM MDT
Astronomical Twilight 4:15 AM MDT 10:10 PM MDT
Moon 7:25 PM MDT (7/21) 4:51 AM MDT (7/21)
Length of Visible Light 15h 20m
Length of Day
14h 21m
Waxing Gibbous, 98% of the Moon is Illuminated
Jul 21
Waxing Gibbous
Jul 22
Full
Jul 29
Last Quarter
Aug 6
New
Aug 14
First Quarter

Hourly Weather History & Observations

Time (MDT) Temp. Dew Point Humidity Pressure Visibility Wind Dir Wind Speed Gust Speed Precip Events Conditions
12:18 AM 46.4 °F 37.4 °F 71% 30.56 in 10.0 mi North - - N/A   Clear
12:38 AM 46.4 °F 37.4 °F 71% 30.55 in 10.0 mi North - - N/A   Clear
12:58 AM 46.4 °F 37.4 °F 71% 30.54 in 10.0 mi North - - N/A   Clear
1:18 AM 44.6 °F 37.4 °F 76% 30.54 in 10.0 mi North - - N/A   Clear
1:38 AM 44.6 °F 37.4 °F 76% 30.54 in 10.0 mi North - - N/A   Clear
1:58 AM 44.6 °F 37.4 °F 76% 30.54 in 10.0 mi North - - N/A   Clear
2:18 AM 44.6 °F 39.2 °F 81% 30.54 in 10.0 mi North - - N/A   Clear
2:38 AM 44.6 °F 37.4 °F 76% 30.54 in 10.0 mi North - - N/A   Clear
2:58 AM 44.6 °F 37.4 °F 76% 30.54 in 10.0 mi North - - N/A   Clear
3:18 AM 44.6 °F 37.4 °F 76% 30.54 in 10.0 mi North - - N/A   Clear
3:38 AM 44.6 °F 37.4 °F 76% 30.54 in 10.0 mi North - - N/A   Scattered Clouds
3:58 AM 44.6 °F 37.4 °F 76% 30.54 in 10.0 mi North - - N/A   Mostly Cloudy
4:18 AM 44.6 °F 37.4 °F 76% 30.53 in 10.0 mi North - - N/A   Scattered Clouds
4:38 AM 44.6 °F 37.4 °F 76% 30.52 in 10.0 mi North - - N/A   Mostly Cloudy
4:58 AM 44.6 °F 37.4 °F 76% 30.53 in 10.0 mi North - - N/A   Mostly Cloudy
5:18 AM 44.6 °F 35.6 °F 71% 30.53 in 10.0 mi North - - N/A   Scattered Clouds
5:38 AM 46.4 °F 35.6 °F 66% 30.53 in 10.0 mi North - - N/A   Clear
5:58 AM 46.4 °F 35.6 °F 66% 30.54 in 10.0 mi North - - N/A   Scattered Clouds
6:18 AM 48.2 °F 35.6 °F 62% 30.54 in 10.0 mi North - - N/A   Mostly Cloudy
6:38 AM 50.0 °F 35.6 °F 58% 30.54 in 10.0 mi North - - N/A   Scattered Clouds
6:58 AM 51.8 °F 33.8 °F 50% 30.54 in 10.0 mi North - - N/A   Clear
7:18 AM 51.8 °F 35.6 °F 54% 30.55 in 10.0 mi North - - N/A   Clear
7:38 AM 53.6 °F 35.6 °F 51% 30.55 in 10.0 mi North - - N/A   Clear
7:58 AM 53.6 °F 37.4 °F 54% 30.56 in 10.0 mi North - - N/A   Clear
8:18 AM 53.6 °F 39.2 °F 58% 30.56 in 10.0 mi North - - N/A   Clear
8:38 AM 55.4 °F 37.4 °F 51% 30.56 in 10.0 mi North - - N/A   Clear
8:58 AM 55.4 °F 37.4 °F 51% 30.56 in 10.0 mi North - - N/A   Clear
9:18 AM 57.2 °F 37.4 °F 48% 30.57 in 10.0 mi North - - N/A   Clear
9:38 AM 59.0 °F 35.6 °F 42% 30.57 in 10.0 mi North - - N/A   Clear
9:58 AM 59.0 °F 33.8 °F 39% 30.57 in 10.0 mi North - - N/A   Clear
10:18 AM 60.8 °F 35.6 °F 39% 30.57 in 10.0 mi North - - N/A   Clear
10:38 AM 59.0 °F 35.6 °F 42% 30.57 in 10.0 mi North - - N/A   Clear
10:58 AM 60.8 °F 35.6 °F 39% 30.57 in 10.0 mi North - - N/A   Mostly Cloudy
11:18 AM 62.6 °F 32.0 °F 32% 30.58 in 10.0 mi North - - N/A   Mostly Cloudy
11:38 AM 59.0 °F 30.2 °F 34% 30.58 in 10.0 mi North - - N/A   Mostly Cloudy
11:58 AM 62.6 °F 28.4 °F 27% 30.58 in 10.0 mi North - - N/A   Mostly Cloudy
12:18 PM 60.8 °F 33.8 °F 36% 30.58 in 10.0 mi North - - N/A   Overcast
12:38 PM 55.4 °F 39.2 °F 54% 30.58 in 10.0 mi North - - N/A   Overcast
12:58 PM 55.4 °F 39.2 °F 54% 30.57 in 10.0 mi North - - N/A   Overcast
1:18 PM 55.4 °F 37.4 °F 51% 30.57 in 10.0 mi North - - N/A Rain Light Rain
1:38 PM 59.0 °F 33.8 °F 39% 30.57 in 10.0 mi North - - N/A   Overcast
1:58 PM 60.8 °F 32.0 °F 34% 30.55 in 10.0 mi North - - N/A   Scattered Clouds
2:18 PM 60.8 °F 32.0 °F 34% 30.54 in 10.0 mi North - - N/A   Scattered Clouds
2:38 PM 59.0 °F 33.8 °F 39% 30.55 in 10.0 mi North - - N/A Thunderstorm Mostly Cloudy
2:58 PM 55.4 °F 33.8 °F 44% 30.55 in 10.0 mi North - - N/A   Mostly Cloudy
3:18 PM 55.4 °F 35.6 °F 47% 30.55 in 10.0 mi North - - N/A   Mostly Cloudy
3:38 PM 53.6 °F 37.4 °F 54% 30.55 in 10.0 mi North - - N/A Thunderstorm Scattered Clouds
3:58 PM 51.8 °F 37.4 °F 58% 30.56 in 10.0 mi North - - N/A   Clear
4:18 PM 51.8 °F 39.2 °F 62% 30.56 in 10.0 mi North - - N/A   Clear
4:38 PM 51.8 °F 37.4 °F 58% 30.55 in 10.0 mi North - - N/A   Clear
4:58 PM 51.8 °F 37.4 °F 58% 30.55 in 10.0 mi North - - N/A Thunderstorm Clear
5:18 PM 55.4 °F 37.4 °F 51% 30.56 in 10.0 mi North - - N/A   Clear
5:38 PM 53.6 °F 35.6 °F 51% 30.55 in 10.0 mi North - - N/A   Scattered Clouds
5:58 PM 51.8 °F 35.6 °F 54% 30.55 in 10.0 mi North - - N/A   Mostly Cloudy
6:18 PM 51.8 °F 35.6 °F 54% 30.54 in 10.0 mi North - - N/A   Mostly Cloudy
6:38 PM 51.8 °F 35.6 °F 54% 30.55 in 10.0 mi North - - N/A   Mostly Cloudy
6:58 PM 50.0 °F 37.4 °F 62% 30.57 in 10.0 mi North - - N/A   Overcast
7:18 PM 50.0 °F 39.2 °F 66% 30.56 in 10.0 mi North - - N/A Rain Rain
7:38 PM 48.2 °F 35.6 °F 62% 30.57 in 10.0 mi North - - N/A   Mostly Cloudy
7:58 PM 50.0 °F 35.6 °F 58% 30.56 in 10.0 mi North - - N/A   Scattered Clouds
8:18 PM 50.0 °F 33.8 °F 54% 30.57 in 10.0 mi North - - N/A   Scattered Clouds
8:38 PM 50.0 °F 33.8 °F 54% 30.57 in 10.0 mi North - - N/A   Mostly Cloudy
8:58 PM 50.0 °F 35.6 °F 58% 30.57 in 10.0 mi North - - N/A   Overcast
9:18 PM 46.4 °F 35.6 °F 66% 30.57 in 10.0 mi North - - N/A   Overcast
9:38 PM 48.2 °F 33.8 °F 58% 30.58 in 10.0 mi North - - N/A   Overcast
9:58 PM 46.4 °F 35.6 °F 66% 30.59 in 10.0 mi North - - N/A   Overcast
10:18 PM 48.2 °F 33.8 °F 58% 30.59 in 10.0 mi North - - N/A   Overcast
10:38 PM 48.2 °F 33.8 °F 58% 30.60 in 10.0 mi North - - N/A   Overcast
10:58 PM 46.4 °F 33.8 °F 62% 30.61 in 10.0 mi North - - N/A   Mostly Cloudy
11:18 PM 46.4 °F 33.8 °F 62% 30.60 in 10.0 mi North - - N/A   Overcast
11:38 PM 46.4 °F 33.8 °F 62% 30.60 in 10.0 mi North - - N/A   Mostly Cloudy
11:58 PM 46.4 °F 33.8 °F 62% 30.59 in 10.0 mi North - - N/A   Clear